Terminal Aerodrome Forecast
Issued by NWS Sioux Falls, SD

Home | Current Version | Previous Version | Graphics & Text | Print | Product List | Glossary On
Versions: 1 2 3 4 5 6 7 8 9 10 11 12 13 14 15 16 17 18 19 20 21 22 23
000
FTUS43 KFSD 010325 AAA
TAFHON
TAF AMD
KHON 010325Z 0103/0124 13004KT 2SM BR SCT005 SCT120
      TEMPO 0103/0106 1SM BR OVC005
     FM010900 17004KT 5SM BR BKN100
      TEMPO 0109/0113 4SM -SHRA BR BKN070
     FM011700 16008KT P6SM SCT045 BKN120=

USA.gov is the U.S. government's official web portal to all federal, state and local government web resources and services.